Weather History for Kimball, NE

Change the Weather History Date:

Sunday, January 6, 2013

  Actual Average (KSNY) Record (KSNY)
Temperature  
Mean Temperature 29 °F 29 °F  
Max Temperature 50 °F 42 °F 65 °F (1954)
Min Temperature 8 °F 16 °F -19 °F (1974)
Degree Days  
Heating Degree Days 36 36  
Since 1 July heating degree days 2763  
Moisture  
Dew Point 10 °F    
Average Humidity 59    
Maximum Humidity 85    
Minimum Humidity 16    
Precipitation  
Precipitation 0.00 in 0.01 in 0.11 in (1986)
Month to date precipitation 0.05  
Year to date precipitation 0.05  
Sea Level Pressure  
Sea Level Pressure 30.06 in    
Wind  
Wind Speed 8 mph (WSW)    
Max Wind Speed 16 mph    
Max Gust Speed -    
Visibility 10 miles    
Events      
T = Trace of Precipitation, MM = Missing Value Source: NWS Daily Summary

Daily Weather History Graph

Daily Weather History Graph

Search for Another Location

Airport:

Trip Planner

Search our weather history database for the weather conditions in past years. The results will help you decide how hot, cold, wet, or windy it might be!

Date:

Astronomy

Jan. 06, 2013 Rise Set
Actual Time 8:20 AM CST 5:41 PM CST
Civil Twilight 7:49 AM CST 6:12 PM CST
Nautical Twilight 7:14 AM CST 6:46 PM CST
Astronomical Twilight 6:41 AM CST 7:20 PM CST
Moon 2:36 AM CST (1/6) 1:11 PM CST (1/6)
Length of Visible Light 10h 23m
Length of Day
9h 21m
Waning Crescent, 33% of the Moon is Illuminated
Jan 6
Waning Crescent
Jan 11
New
Jan 18
First Quarter
Jan 26
Full
Feb 3
Last Quarter

Hourly Weather History & Observations

Time (CST) Temp. Windchill Dew Point Humidity Pressure Visibility Wind Dir Wind Speed Gust Speed Precip Events Conditions
12:15 AM 12.0 °F - 6.3 °F 78% 30.24 in 10.0 mi Calm Calm - N/A   Clear
12:35 AM 10.6 °F -1.3 °F 5.2 °F 79% 30.24 in 10.0 mi West 8.1 mph - N/A   Clear
12:55 AM 10.2 °F 0.6 °F 4.8 °F 79% 30.22 in 10.0 mi West 5.8 mph - N/A   Clear
1:15 AM 9.7 °F -0.1 °F 4.3 °F 79% 30.22 in 10.0 mi WSW 5.8 mph - N/A   Clear
1:35 AM 9.5 °F -2.6 °F 4.1 °F 79% 30.21 in 10.0 mi West 8.1 mph - N/A   Clear
1:55 AM 9.0 °F -3.2 °F 3.4 °F 78% 30.21 in 10.0 mi West 8.1 mph - N/A   Clear
2:15 AM 10.0 °F -2.9 °F 5.0 °F 80% 30.21 in 10.0 mi West 9.2 mph - N/A   Clear
2:35 AM 14.2 °F 2.2 °F 8.1 °F 77% 30.21 in 10.0 mi West 9.2 mph - N/A   Clear
2:55 AM 14.7 °F 2.9 °F 8.1 °F 75% 30.21 in 10.0 mi West 9.2 mph - N/A   Clear
3:15 AM 12.6 °F 0.2 °F 6.8 °F 78% 30.21 in 10.0 mi West 9.2 mph - N/A   Clear
3:35 AM 12.0 °F 1.5 °F 6.6 °F 79% 30.21 in 10.0 mi West 6.9 mph - N/A   Clear
4:15 AM 9.5 °F -0.3 °F 5.0 °F 82% 30.19 in 10.0 mi West 5.8 mph - N/A   Clear
4:35 AM 10.4 °F -2.4 °F 5.5 °F 81% 30.18 in 10.0 mi West 9.2 mph - N/A   Clear
4:55 AM 9.9 °F -3.1 °F 5.4 °F 82% 30.18 in 10.0 mi WSW 9.2 mph - N/A   Clear
5:15 AM 8.4 °F -3.9 °F 4.1 °F 83% 30.17 in 10.0 mi West 8.1 mph - N/A   Clear
5:35 AM 9.7 °F -5.0 °F 5.9 °F 85% 30.17 in 10.0 mi West 11.5 mph - N/A   Clear
5:55 AM 9.5 °F -2.6 °F 5.2 °F 83% 30.16 in 10.0 mi WSW 8.1 mph - N/A   Clear
6:15 AM 10.2 °F -2.7 °F 5.5 °F 81% 30.16 in 10.0 mi West 9.2 mph - N/A   Clear
6:35 AM 13.3 °F 2.0 °F 8.1 °F 80% 30.15 in 10.0 mi West 8.1 mph - N/A   Clear
6:55 AM 11.5 °F -1.9 °F 6.8 °F 81% 30.15 in 10.0 mi West 10.4 mph - N/A   Clear
7:15 AM 12.4 °F -0.8 °F 7.0 °F 79% 30.15 in 10.0 mi WSW 10.4 mph - N/A   Clear
7:35 AM 11.5 °F -2.7 °F 6.1 °F 79% 30.14 in 10.0 mi West 11.5 mph - N/A   Clear
7:55 AM 10.4 °F -2.4 °F 5.5 °F 81% 30.14 in 10.0 mi West 9.2 mph - N/A   Clear
8:15 AM 11.7 °F -0.9 °F 5.9 °F 78% 30.14 in 10.0 mi West 9.2 mph - N/A   Clear
8:35 AM 11.1 °F -3.2 °F 5.2 °F 77% 30.14 in 10.0 mi West 11.5 mph - N/A   Clear
8:55 AM 13.3 °F -0.5 °F 6.6 °F 75% 30.14 in 10.0 mi WSW 11.5 mph - N/A   Clear
9:15 AM 15.3 °F 2.8 °F 8.1 °F 73% 30.14 in 10.0 mi WSW 10.4 mph - N/A   Clear
9:35 AM 18.7 °F 6.3 °F 10.2 °F 70% 30.14 in 10.0 mi WSW 11.5 mph - N/A   Clear
9:55 AM 21.0 °F 10.6 °F 12.2 °F 69% 30.13 in 10.0 mi WSW 9.2 mph - N/A   Clear
10:15 AM 25.3 °F 16.7 °F 15.4 °F 66% 30.13 in 10.0 mi SW 8.1 mph - N/A   Clear
10:35 AM 29.8 °F 22.2 °F 16.5 °F 58% 30.13 in 10.0 mi WSW 8.1 mph - N/A   Clear
10:55 AM 34.2 °F 25.7 °F 18.1 °F 52% 30.13 in 10.0 mi SW 11.5 mph - N/A   Clear
11:15 AM 38.5 °F 30.3 °F 15.4 °F 39% 30.12 in 10.0 mi SW 13.8 mph - N/A   Clear
11:35 AM 40.3 °F 33.4 °F 14.5 °F 35% 30.11 in 10.0 mi SW 11.5 mph - N/A   Clear
11:55 AM 42.1 °F 34.2 °F 12.6 °F 30% 30.09 in 10.0 mi SSW 16.1 mph - N/A   Clear
12:15 PM 43.3 °F 36.1 °F 12.7 °F 29% 30.08 in 10.0 mi SSW 15.0 mph - N/A   Clear
12:35 PM 44.1 °F 37.1 °F 12.2 °F 28% 30.06 in 10.0 mi SSW 15.0 mph - N/A   Clear
12:55 PM 45.7 °F 39.5 °F 11.3 °F 25% 30.05 in 10.0 mi SSW 13.8 mph - N/A   Clear
1:15 PM 46.4 °F 40.7 °F 10.8 °F 24% 30.03 in 10.0 mi SSW 12.7 mph - N/A   Clear
1:35 PM 47.8 °F - 9.5 °F 21% 30.01 in 10.0 mi SW 12.7 mph - N/A   Clear
1:55 PM 48.7 °F - 9.9 °F 21% 30.00 in 10.0 mi SW 9.2 mph - N/A   Clear
2:15 PM 49.6 °F - 7.0 °F 18% 30.00 in 10.0 mi SSW 10.4 mph - N/A   Clear
2:35 PM 49.5 °F - 8.1 °F 19% 29.98 in 10.0 mi SSW 9.2 mph - N/A   Clear
2:55 PM 50.2 °F - 4.8 °F 16% 29.97 in 10.0 mi South 13.8 mph - N/A   Clear
3:15 PM 49.8 °F - 8.1 °F 18% 29.96 in 10.0 mi South 13.8 mph - N/A   Clear
3:35 PM 47.3 °F - 11.8 °F 24% 29.96 in 10.0 mi South 11.5 mph - N/A   Clear
3:55 PM 46.4 °F 41.1 °F 12.7 °F 26% 29.95 in 10.0 mi South 11.5 mph - N/A   Clear
4:15 PM 45.7 °F 41.5 °F 15.8 °F 30% 29.95 in 10.0 mi SSW 8.1 mph - N/A   Clear
4:35 PM 43.5 °F 38.9 °F 16.0 °F 33% 29.95 in 10.0 mi South 8.1 mph - N/A   Clear
4:55 PM 40.3 °F 36.3 °F 17.6 °F 40% 29.95 in 10.0 mi SSW 5.8 mph - N/A   Clear
5:15 PM 37.6 °F 32.3 °F 17.6 °F 44% 29.94 in 10.0 mi SSW 6.9 mph - N/A   Clear
5:35 PM 35.1 °F 27.4 °F 15.6 °F 45% 29.94 in 10.0 mi SSW 10.4 mph - N/A   Clear
5:55 PM 32.4 °F 25.3 °F 15.3 °F 49% 29.94 in 10.0 mi SSW 8.1 mph - N/A   Clear
6:15 PM 30.4 °F 22.2 °F 14.9 °F 53% 29.92 in 10.0 mi South 9.2 mph - N/A   Clear
6:35 PM 30.4 °F 22.2 °F 14.5 °F 52% 29.92 in 10.0 mi SSW 9.2 mph - N/A   Clear
6:55 PM 28.2 °F 22.0 °F 14.5 °F 57% 29.92 in 10.0 mi SW 5.8 mph - N/A   Clear
7:15 PM 27.0 °F 19.5 °F 14.5 °F 60% 29.92 in 10.0 mi WSW 6.9 mph - N/A   Clear
7:35 PM 25.5 °F 18.7 °F 14.0 °F 62% 29.92 in 10.0 mi SW 5.8 mph - N/A   Clear
7:55 PM 24.3 °F 15.4 °F 13.8 °F 64% 29.92 in 10.0 mi WSW 8.1 mph - N/A   Clear
8:15 PM 23.7 °F 15.6 °F 13.6 °F 65% 29.91 in 10.0 mi WSW 6.9 mph - N/A   Clear
8:35 PM 20.3 °F 11.5 °F 13.1 °F 74% 29.91 in 10.0 mi West 6.9 mph - N/A   Clear
8:55 PM 21.9 °F 14.5 °F 12.9 °F 68% 29.91 in 10.0 mi West 5.8 mph - N/A   Clear
9:15 PM 24.4 °F 16.5 °F 12.9 °F 62% 29.91 in 10.0 mi West 6.9 mph - N/A   Clear
9:55 PM 25.5 °F 14.9 °F 12.9 °F 59% 29.90 in 10.0 mi West 11.5 mph - N/A   Clear
10:15 PM 24.6 °F 14.4 °F 12.9 °F 61% 29.90 in 10.0 mi West 10.4 mph - N/A   Clear
10:35 PM 23.2 °F 14.1 °F 12.7 °F 64% 29.90 in 10.0 mi West 8.1 mph - N/A   Clear
10:55 PM 23.7 °F 14.7 °F 12.6 °F 62% 29.90 in 10.0 mi West 8.1 mph - N/A   Clear
11:35 PM 21.2 °F 11.7 °F 12.2 °F 68% 29.89 in 10.0 mi WNW 8.1 mph - N/A   Clear
11:55 PM 21.9 °F 12.5 °F 12.0 °F 66% 29.88 in 10.0 mi WNW 8.1 mph - N/A   Clear